Date String (YYYY-MM-DD hh:mm:ss) UTC,Instrument flags,Ambient pressure (hPa),Sample flow (lpm),Bypass flow (lpm),Sample temperature (°C),Ambient temperature (°C),ASC tube jacket temperature (°C),LED temperature (°C),Box temperature (°C),Sample RH (%),Span deviation,Mass concentration (μg/m³),Mass concentration (μg/m³),Mass concentration (μg/m³)
DateTimeUTC,F1_M11,P_M11,Q1_M11,Q2_M11,T1_M11,T2_M11,T3_M11,T4_M11,T5_M11,U1_M11,ZSPAN_M11,X0_M11,X2_M11,X1_M11
2021-10-16 10:00:00,,0833.6,4.99,0.00,25.4,24.4,00.0,34.6,27.2,09.0,0000.0,0005.93,0002.79,0001.92
2021-10-16 10:01:00,,0833.6,5.01,0.00,25.4,24.4,00.0,34.6,27.1,09.0,0000.0,0005.89,0002.75,0001.92
2021-10-16 10:02:00,,0833.6,5.00,0.00,25.4,24.4,00.0,34.6,27.1,09.0,0000.0,0005.91,0002.72,0001.93
2021-10-16 10:03:00,,0833.7,4.99,0.00,25.4,24.4,00.0,34.6,27.1,09.0,0000.0,0005.77,0002.73,0001.94
2021-10-16 10:04:00,,0833.6,5.01,0.00,25.4,24.4,00.0,34.6,27.2,09.1,0000.0,0005.70,0002.72,0001.95
2021-10-16 10:05:00,,0833.7,5.01,0.00,25.4,24.4,00.0,34.6,27.1,09.1,0000.0,0005.56,0002.70,0001.96
2021-10-16 10:06:00,,0833.6,4.99,0.00,25.4,24.3,00.0,34.6,27.1,09.1,0000.0,0005.68,0002.70,0001.97
2021-10-16 10:07:00,,0833.6,5.00,0.00,25.4,24.3,00.0,34.5,27.1,09.1,0000.0,0006.01,0002.77,0001.99
2021-10-16 10:08:00,,0833.6,5.01,0.00,25.4,24.3,00.0,34.5,27.1,09.2,0000.0,0005.95,0002.75,0002.01
2021-10-16 10:09:00,,0833.6,4.99,0.00,25.3,24.3,00.0,34.5,27.1,09.3,0000.0,0006.54,0002.78,0002.03
2021-10-16 10:10:00,,0833.6,5.00,0.00,25.3,24.3,00.0,34.5,27.1,09.2,0000.0,0007.24,0002.85,0002.05
2021-10-16 10:11:00,,0833.6,5.00,0.00,25.3,24.3,00.0,34.5,27.1,09.2,0000.0,0007.59,0002.88,0002.06
2021-10-16 10:12:00,,0833.6,5.00,0.00,25.3,24.3,00.0,34.5,27.0,09.2,0000.0,0008.44,0002.95,0002.09
2021-10-16 10:13:00,,0833.6,5.01,0.00,25.3,24.3,00.0,34.5,27.0,09.2,0000.0,0008.55,0003.00,0002.09
2021-10-16 10:14:00,,0833.7,4.99,0.00,25.3,24.3,00.0,34.5,27.0,09.2,0000.0,0008.43,0003.01,0002.10
2021-10-16 10:15:00,,0833.6,5.01,0.00,25.3,24.2,00.0,34.5,27.0,09.2,0000.0,0008.75,0003.08,0002.13
2021-10-16 10:16:00,,0833.6,5.00,0.00,25.3,24.2,00.0,34.5,27.0,09.2,0000.0,0009.11,0003.10,0002.14
2021-10-16 10:17:00,,0833.6,5.00,0.00,25.3,24.2,00.0,34.5,26.9,09.2,0000.0,0009.11,0003.11,0002.15
2021-10-16 10:18:00,,0833.6,5.00,0.00,25.2,24.2,00.0,34.4,26.9,09.2,0000.0,0009.25,0003.14,0002.16
2021-10-16 10:19:00,,0833.6,5.00,0.00,25.2,24.2,00.0,34.4,26.9,09.2,0000.0,0009.65,0003.16,0002.14
2021-10-16 10:20:00,,0833.6,4.99,0.00,25.2,24.2,00.0,34.4,26.9,09.2,0000.0,0009.50,0003.16,0002.14
2021-10-16 10:21:00,,0833.6,5.01,0.00,25.2,24.2,00.0,34.4,26.9,09.2,0000.0,0008.66,0003.08,0002.12
2021-10-16 10:22:00,,0833.6,5.00,0.00,25.2,24.1,00.0,34.4,26.9,09.2,0000.0,0008.36,0003.06,0002.12
2021-10-16 10:23:00,,0833.6,5.01,0.00,25.2,24.1,00.0,34.4,26.9,09.2,0000.0,0007.69,0003.08,0002.12
2021-10-16 10:24:00,,0833.7,5.00,0.00,25.2,24.1,00.0,34.4,26.9,09.2,0000.0,0007.64,0003.03,0002.12
2021-10-16 10:25:00,,0833.7,5.00,0.00,25.2,24.1,00.0,34.4,26.9,09.2,0000.0,0007.61,0003.02,0002.11
2021-10-16 10:26:00,,0833.7,5.01,0.00,25.2,24.1,00.0,34.4,26.9,09.2,0000.0,0007.38,0003.03,0002.10
2021-10-16 10:27:00,,0833.7,4.99,0.00,25.2,24.1,00.0,34.4,26.9,09.1,0000.0,0006.87,0003.05,0002.10
2021-10-16 10:28:00,,0833.7,5.01,0.00,25.1,24.1,00.0,34.4,26.9,09.1,0000.0,0006.97,0003.09,0002.11
2021-10-16 10:29:00,,0833.8,4.99,0.00,25.1,24.1,00.0,34.3,26.9,09.2,0000.0,0006.81,0003.03,0002.11
2021-10-16 10:30:00,,0833.7,5.01,0.00,25.1,24.1,00.0,34.3,26.9,09.1,0000.0,0006.07,0002.95,0002.10
2021-10-16 10:31:00,,0833.7,5.01,0.00,25.1,24.1,00.0,34.3,26.9,09.1,0000.0,0006.15,0002.90,0002.08
2021-10-16 10:32:00,,0833.7,5.00,0.00,25.1,24.1,00.0,34.3,26.9,09.1,0000.0,0006.24,0002.90,0002.06
2021-10-16 10:33:00,,0833.8,5.00,0.00,25.1,24.1,00.0,34.3,26.9,09.2,0000.0,0005.95,0002.85,0002.04
2021-10-16 10:34:00,,0833.7,5.00,0.00,25.1,24.1,00.0,34.3,26.9,09.2,0000.0,0005.44,0002.80,0002.03
2021-10-16 10:35:00,,0833.8,4.99,0.00,25.1,24.1,00.0,34.3,26.9,09.1,0000.0,0005.24,0002.80,0002.01
2021-10-16 10:36:00,,0833.8,5.01,0.00,25.1,24.1,00.0,34.3,26.9,09.1,0000.0,0005.27,0002.80,0002.00
2021-10-16 10:37:00,,0833.8,5.00,0.00,25.1,24.1,00.0,34.3,26.9,09.2,0000.0,0005.59,0002.78,0001.99
2021-10-16 10:38:00,,0833.8,4.99,0.00,25.1,24.1,00.0,34.3,26.8,09.2,0000.0,0005.68,0002.80,0001.97
2021-10-16 10:39:00,,0833.9,5.01,0.00,25.1,24.1,00.0,34.3,26.8,09.2,0000.0,0005.91,0002.75,0001.97
2021-10-16 10:40:00,,0833.9,4.99,0.00,25.1,24.1,00.0,34.3,26.8,09.3,0000.0,0005.62,0002.71,0001.95
2021-10-16 10:41:00,,0833.9,5.01,0.00,25.1,24.1,00.0,34.3,26.8,09.3,0000.0,0005.70,0002.73,0001.94
2021-10-16 10:42:00,,0833.8,4.99,0.00,25.1,24.1,00.0,34.2,26.8,09.3,0000.0,0005.80,0002.70,0001.93
2021-10-16 10:43:00,,0833.8,5.00,0.00,25.0,24.0,00.0,34.2,26.8,09.2,0000.0,0006.89,0002.68,0001.93
2021-10-16 10:44:00,,0833.9,5.01,0.00,25.0,24.0,00.0,34.2,26.8,09.2,0000.0,0006.98,0002.68,0001.93
2021-10-16 10:45:00,,0833.8,4.99,0.00,25.0,24.0,00.0,34.2,26.8,09.2,0000.0,0006.95,0002.66,0001.93
2021-10-16 10:46:00,,0833.9,5.01,0.00,25.0,24.0,00.0,34.2,26.8,09.2,0000.0,0006.93,0002.64,0001.93
2021-10-16 10:47:00,,0833.8,4.99,0.00,25.0,24.0,00.0,34.2,26.8,09.2,0000.0,0006.97,0002.64,0001.92
2021-10-16 10:48:00,,0833.8,5.01,0.00,25.0,24.0,00.0,34.2,26.8,09.1,0000.0,0006.77,0002.65,0001.92
2021-10-16 10:49:00,,0833.8,5.00,0.00,25.0,24.0,00.0,34.2,26.8,09.1,0000.0,0006.54,0002.59,0001.90
2021-10-16 10:50:00,,0833.9,5.01,0.00,25.0,24.0,00.0,34.2,26.7,09.1,0000.0,0006.19,0002.57,0001.88
2021-10-16 10:51:00,,0833.8,5.00,0.00,25.0,24.0,00.0,34.2,26.8,09.1,0000.0,0006.08,0002.62,0001.87
2021-10-16 10:52:00,,0833.9,4.99,0.00,25.0,24.0,00.0,34.2,26.8,09.1,0000.0,0006.20,0002.67,0001.87
2021-10-16 10:53:00,,0833.8,5.00,0.00,25.0,24.0,00.0,34.1,26.8,09.1,0000.0,0006.12,0002.64,0001.86
2021-10-16 10:54:00,,0833.8,5.00,0.00,25.0,24.0,00.0,34.1,26.8,09.0,0000.0,0004.93,0002.67,0001.85
2021-10-16 10:55:00,,0833.8,4.99,0.00,25.0,24.0,00.0,34.1,26.8,09.0,0000.0,0004.68,0002.67,0001.84
2021-10-16 10:56:00,,0833.9,5.00,0.00,25.0,24.0,00.0,34.1,26.8,09.0,0000.0,0004.67,0002.66,0001.83
2021-10-16 10:57:00,,0833.9,5.01,0.00,25.0,24.0,00.0,34.1,26.7,09.1,0000.0,0004.67,0002.67,0001.81
2021-10-16 10:58:00,,0833.9,4.99,0.00,25.0,24.0,00.0,34.1,26.7,09.2,0000.0,0004.64,0002.66,0001.80
2021-10-16 10:59:00,,0833.9,5.02,0.00,25.0,24.0,00.0,34.1,26.7,09.2,0000.0,0005.13,0002.64,0001.78
